アトラス彗星

C/2024 M1 ( ATLAS )

English version
Home page
Updated on September 27, 2024

---------------------------------------------------------------------

・ プロフィール

発見日 2024年6月29日
発見光度 17.8等
発見者 Asteroid Terrestrial-Impact Last Alert System (ATLAS) search program

・ 写真集

・ 軌道要素

Epoch 2024 Mar. 31.0 TT = JDT 2460400.5                                         
T 2024 Nov. 20.03882 TT                                 Rudenko                 
q   1.7034779            (2000.0)            P               Q                  
n   0.00605275     Peri.  345.60102     +0.29853878     -0.20460995             
a  29.8195417      Node    76.21495     +0.94276116     -0.08883721             
e   0.9428738      Incl.   73.70992     +0.14857990     +0.97480394             
P 163                                                                           
>From 120 observations 2022 May 10-2024 July 19, mean residual 0".2.             

・ 星図

・ 光度変化

        H = 13.0  G = 0.15                [    ,-157]  (              〜2024年 6月16日)
        m1 = 12.0 + 5 logΔ + 10.0 log r  [-157,    ]  (2024年 6月16日〜              )

---------------------------------------------------------------------

軌道要素はM.P.E.C. 2024-O16に掲載されたものです。
星図はステラナビゲータ Ver.11 (アストロアーツ) で作成したものです。
光度グラフはComet for Windowsで作成したものです。

---------------------------------------------------------------------

Copyright(C) Seiichi Yoshida (comet@aerith.net). All rights reserved.